User: anonymous   Login
Location: Caltech
(34.1382°N, 118.1253°W)
Time: 05:58:54
(UTC-08:00)
Language:

Cosmos 1980 Rocket - Orbit

View from above orbital plane
View from above orbital plane
View from above satellite
View from above satellite

Ground track
Ground track

The orbit data is extracted from the following two-line orbital elements,

1 19650U 88102B   15028.55536339  .00000161  00000-0  10655-3 0  4875
2 19650 070.9995 045.7092 0012260 062.2657 066.6374 14.15695773352772
Epoch (UTC): 28 January 2015 13:19:43
Eccentricity: 0.0012260
inclination: 70.9995°
perigee height: 831 km
apogee height: 849 km
right ascension of ascending node: 45.7092°
argument of perigee: 62.2657°
revolutions per day: 14.15695773
mean anomaly at epoch: 66.6374°
orbit number at epoch: 35277

The dashed part of the orbit path shows where the satellite is in the earth's shadow,  

DLR